Thermopolis, WY

6:31 AM MST on February 12, 2016 (GMT -0700)
Thermopolis

Weather History for KTBX - November, 2013

Change the Weather History Date:

Wednesday, November 6, 2013

  Actual Average (KWRL) Record (KWRL)
Temperature  
Mean Temperature 30 °F 36 °F  
Max Temperature 33 °F 50 °F 77 °F (1999)
Min Temperature 26 °F 22 °F 4 °F (2003)
Degree Days  
Heating Degree Days 36 29  
Month to date heating degree days 165  
Since 1 July heating degree days 1027  
Cooling Degree Days 0 0  
Month to date cooling degree days 0  
Year to date cooling degree days 535  
Moisture  
Dew Point 12 °F    
Average Humidity 47    
Maximum Humidity 55    
Minimum Humidity 27    
Precipitation  
Precipitation 0.00 in 0.02 in 0.53 in (1986)
Month to date precipitation 0.08  
Year to date precipitation 7.07  
Sea Level Pressure  
Sea Level Pressure 30.23 in    
Wind  
Wind Speed 7 mph (WNW)    
Max Wind Speed 18 mph    
Max Gust Speed 20 mph    
Visibility 10 miles    
Events      
T = Trace of Precipitation, MM = Missing Value Source: NWS Daily Summary

Daily Weather History Graph

Daily Weather History Graph

Search for Another Location

Airport or City:

Trip Planner

Search our weather history database for the weather conditions in past years. The results will help you decide how hot, cold, wet, or windy it might be!

Date:

Astronomy

Nov. 06, 2013 Rise Set
Actual Time 6:55 AM MST 4:57 PM MST
Civil Twilight 6:25 AM MST 5:27 PM MST
Nautical Twilight 5:50 AM MST 6:01 PM MST
Astronomical Twilight 5:17 AM MST 6:34 PM MST
Moon 10:15 AM MST (11/6) 8:02 PM MST (11/6)
Length of Visible Light 11h 02m
Length of Day
10h 02m
Waxing Crescent, 14% of the Moon is Illuminated
Nov 6
Waxing Crescent
Nov 9
First Quarter
Nov 17
Full
Nov 25
Last Quarter
Dec 2
New

Hourly Weather History & Observations

Time (MST) Temp. Windchill Dew Point Humidity Pressure Visibility Wind Dir Wind Speed Gust Speed Precip Events Conditions
12:15 AM 28.4 °F 24.6 °F 3.2 °F 34% 30.12 in 10.0 mi SSE 3.5 mph - N/A   Unknown
12:35 AM 28.4 °F 21.2 °F 1.4 °F 31% 30.12 in 10.0 mi SE 6.9 mph - N/A   Unknown
12:55 AM 26.6 °F 22.6 °F 5.0 °F 40% 30.12 in 10.0 mi ESE 3.5 mph - N/A   Unknown
1:15 AM 26.6 °F 21.2 °F 5.0 °F 40% 30.12 in 10.0 mi SE 4.6 mph - N/A   Unknown
1:35 AM 30.2 °F - -0.4 °F 27% 30.12 in 10.0 mi Calm Calm - N/A   Unknown
1:55 AM 28.4 °F - 5.0 °F 37% 30.13 in 10.0 mi Calm Calm - N/A   Unknown
2:15 AM 28.4 °F 24.6 °F 5.0 °F 37% 30.13 in 10.0 mi NW 3.5 mph - N/A   Unknown
2:35 AM 28.4 °F - 5.0 °F 37% 30.13 in 10.0 mi Calm Calm - N/A   Unknown
2:55 AM 30.2 °F - 3.2 °F 32% 30.13 in 10.0 mi Calm Calm - N/A   Unknown
3:15 AM 30.2 °F - 6.8 °F 37% 30.14 in 10.0 mi Calm Calm - N/A   Unknown
3:35 AM 26.6 °F - 6.8 °F 43% 30.13 in 10.0 mi Calm Calm - N/A   Unknown
3:55 AM 28.4 °F 21.2 °F 6.8 °F 40% 30.14 in 10.0 mi South 6.9 mph - N/A   Unknown
4:15 AM 30.2 °F 25.4 °F 5.0 °F 34% 30.13 in 10.0 mi SE 4.6 mph - N/A   Unknown
4:35 AM 26.6 °F 17.5 °F 5.0 °F 40% 30.14 in 10.0 mi SSE 9.2 mph - N/A   Unknown
4:55 AM 26.6 °F 19.1 °F 6.8 °F 43% 30.14 in 10.0 mi SE 6.9 mph - N/A   Unknown
5:15 AM 28.4 °F 19.7 °F 5.0 °F 37% 30.14 in 10.0 mi South 9.2 mph - N/A   Unknown
5:35 AM 26.6 °F 19.1 °F 8.6 °F 47% 30.14 in 10.0 mi SSW 6.9 mph - N/A   Unknown
5:55 AM 28.4 °F 18.5 °F 10.4 °F 47% 30.14 in 10.0 mi SSW 11.5 mph - N/A   Unknown
6:15 AM 28.4 °F 17.5 °F 12.2 °F 51% 30.14 in 10.0 mi SW 13.8 mph - N/A   Unknown
6:35 AM 28.4 °F 17.5 °F 12.2 °F 51% 30.15 in 10.0 mi SW 13.8 mph - N/A   Unknown
6:55 AM 28.4 °F 15.8 °F 12.2 °F 51% 30.16 in 10.0 mi WSW 18.4 mph - N/A   Unknown
7:15 AM 28.4 °F 17.0 °F 12.2 °F 51% 30.16 in 10.0 mi WSW 15.0 mph - N/A   Unknown
7:35 AM 28.4 °F 17.0 °F 12.2 °F 51% 30.17 in 10.0 mi WSW 15.0 mph - N/A   Unknown
7:55 AM 30.2 °F 20.2 °F 12.2 °F 47% 30.18 in 10.0 mi WSW 12.7 mph 19.6 mph N/A   Unknown
8:15 AM 30.2 °F 19.3 °F 14.0 °F 51% 30.19 in 10.0 mi WSW 15.0 mph - N/A   Unknown
8:35 AM 30.2 °F 19.3 °F 14.0 °F 51% 30.20 in 10.0 mi SW 15.0 mph - N/A   Unknown
8:55 AM 30.2 °F 19.8 °F 14.0 °F 51% 30.20 in 10.0 mi WSW 13.8 mph - N/A   Unknown
9:15 AM 32.0 °F 23.6 °F 14.0 °F 48% 30.21 in 10.0 mi WSW 10.4 mph - N/A   Unknown
9:35 AM 32.0 °F 26.4 °F 14.0 °F 48% 30.22 in 10.0 mi SW 5.8 mph - N/A   Unknown
9:55 AM 32.0 °F 22.5 °F 14.0 °F 48% 30.22 in 10.0 mi West 12.7 mph - N/A   Unknown
10:15 AM 32.0 °F 21.6 °F 14.0 °F 48% 30.22 in 10.0 mi West 15.0 mph - N/A   Unknown
10:35 AM 32.0 °F 23.6 °F 14.0 °F 48% 30.23 in 10.0 mi West 10.4 mph - N/A   Unknown
10:55 AM 32.0 °F 26.4 °F 14.0 °F 48% 30.24 in 10.0 mi WNW 5.8 mph - N/A   Unknown
11:15 AM 32.0 °F - 12.2 °F 44% 30.23 in 10.0 mi Calm Calm - N/A   Unknown
11:35 AM 32.0 °F 28.7 °F 12.2 °F 44% 30.24 in 10.0 mi WNW 3.5 mph - N/A   Unknown
11:55 AM 32.0 °F - 14.0 °F 48% 30.23 in 10.0 mi Calm Calm - N/A   Unknown
12:15 PM 32.0 °F - 14.0 °F 48% 30.24 in 10.0 mi Calm Calm - N/A   Unknown
12:35 PM 32.0 °F 27.5 °F 15.8 °F 51% 30.23 in 10.0 mi North 4.6 mph - N/A   Unknown
12:55 PM 33.8 °F - 17.6 °F 52% 30.23 in 10.0 mi Calm Calm - N/A   Unknown
1:15 PM 33.8 °F 29.6 °F 17.6 °F 52% 30.23 in 10.0 mi WNW 4.6 mph - N/A   Unknown
1:35 PM 33.8 °F 27.0 °F 17.6 °F 52% 30.24 in 10.0 mi NW 8.1 mph - N/A   Unknown
1:55 PM 32.0 °F 24.8 °F 17.6 °F 55% 30.24 in 10.0 mi NNW 8.1 mph - N/A   Unknown
2:15 PM 32.0 °F 25.6 °F 15.8 °F 51% 30.25 in 10.0 mi NW 6.9 mph - N/A   Unknown
2:35 PM 32.0 °F 24.2 °F 15.8 °F 51% 30.25 in 10.0 mi NW 9.2 mph - N/A   Unknown
2:55 PM 32.0 °F 23.0 °F 14.0 °F 48% 30.25 in 10.0 mi NNW 11.5 mph - N/A   Unknown
3:15 PM 32.0 °F 23.6 °F 12.2 °F 44% 30.26 in 10.0 mi NW 10.4 mph - N/A   Unknown
3:35 PM 32.0 °F 22.5 °F 14.0 °F 48% 30.26 in 10.0 mi NNW 12.7 mph - N/A   Unknown
3:55 PM 32.0 °F 22.1 °F 14.0 °F 48% 30.26 in 10.0 mi NNW 13.8 mph - N/A   Unknown
4:15 PM 32.0 °F 22.5 °F 14.0 °F 48% 30.27 in 10.0 mi NNW 12.7 mph - N/A   Unknown
4:35 PM 32.0 °F 23.0 °F 14.0 °F 48% 30.28 in 10.0 mi North 11.5 mph - N/A   Unknown
4:55 PM 32.0 °F 23.0 °F 14.0 °F 48% 30.29 in 10.0 mi North 11.5 mph - N/A   Unknown
5:15 PM 32.0 °F 22.1 °F 14.0 °F 48% 30.30 in 10.0 mi NNW 13.8 mph - N/A   Unknown
5:35 PM 32.0 °F 23.0 °F 14.0 °F 48% 30.30 in 10.0 mi NNW 11.5 mph - N/A   Unknown
5:55 PM 32.0 °F 22.5 °F 15.8 °F 51% 30.30 in 10.0 mi NNW 12.7 mph - N/A   Unknown
6:15 PM 30.2 °F 19.3 °F 14.0 °F 51% 30.30 in 10.0 mi NNW 15.0 mph - N/A   Unknown
6:35 PM 32.0 °F 24.8 °F 15.8 °F 51% 30.32 in 10.0 mi NNW 8.1 mph - N/A   Unknown
6:55 PM 32.0 °F 23.6 °F 14.0 °F 48% 30.32 in 10.0 mi North 10.4 mph - N/A   Unknown
7:15 PM 32.0 °F 23.6 °F 15.8 °F 51% 30.32 in 10.0 mi North 10.4 mph - N/A   Unknown
7:35 PM 32.0 °F 24.2 °F 15.8 °F 51% 30.33 in 10.0 mi North 9.2 mph - N/A   Unknown
7:55 PM 32.0 °F 27.5 °F 15.8 °F 51% 30.33 in 10.0 mi NE 4.6 mph - N/A   Unknown
8:15 PM 32.0 °F - 14.0 °F 48% 30.34 in 10.0 mi Calm Calm - N/A   Unknown
8:35 PM 32.0 °F - 14.0 °F 48% 30.35 in 10.0 mi Calm Calm - N/A   Unknown
8:55 PM 32.0 °F 28.7 °F 14.0 °F 48% 30.36 in 10.0 mi NNE 3.5 mph - N/A   Unknown
9:15 PM 32.0 °F - 14.0 °F 48% 30.37 in 10.0 mi Calm Calm - N/A   Unknown
9:35 PM 32.0 °F - 14.0 °F 48% 30.37 in 10.0 mi Calm Calm - N/A   Unknown
9:55 PM 32.0 °F 28.7 °F 14.0 °F 48% 30.37 in 10.0 mi East 3.5 mph - N/A   Unknown
10:15 PM 32.0 °F 26.4 °F 14.0 °F 48% 30.36 in 10.0 mi ESE 5.8 mph - N/A   Unknown
10:35 PM 32.0 °F 26.4 °F 14.0 °F 48% 30.36 in 10.0 mi ESE 5.8 mph - N/A   Unknown
10:55 PM 32.0 °F 23.6 °F 14.0 °F 48% 30.34 in 10.0 mi ESE 10.4 mph - N/A   Unknown
11:15 PM 30.2 °F 20.8 °F 15.8 °F 55% 30.34 in 10.0 mi SE 11.5 mph - N/A   Unknown
11:35 PM 30.2 °F 19.8 °F 15.8 °F 55% 30.35 in 10.0 mi SE 13.8 mph 17.3 mph N/A   Unknown
11:55 PM 30.2 °F 20.2 °F 15.8 °F 55% 30.35 in 10.0 mi ESE 12.7 mph - N/A   Unknown